La Palma > WETTERSTATION Monte de Luna - Mazo

AKTUELLE DATEN Online

Letztes Update am 8 minutos

18.9 ºC

Temperatur

55

Feuchtigkeit (%)

1020.6

Druck (mb)

0

Niederschlag (mm)

5 SSE

Wind (Km/h)

TÄGLICHE DATEN

Temperatur in den letzten 24 Stunden (ºC)

Luftfeuchtigkeit letzte 24 Stunden (%)

Atmosphärischer Druck in den letzten 24 Stunden últimas 24 horas (mb)

Niederschläge in den letzten 24 Stunden (mm)

Windböen in den letzten 24 Stunden (Km/h)

Stunde Temperatur (°C) ºC Niederschlag (mm) mm Druck (mb) mb Feuchtigkeit (%) % Wind (Km/h) km/h
15 - 22:00 20.8 0 1021 53 2.3 ENE
15 - 23:00 19.9 0 1022 74 2.6 NNW
16 - 00:00 18.6 0 1021 81 0.6 NE
16 - 01:00 20.9 0 1021 51 4.7 W
16 - 02:00 21.2 0 1021 43 1.4 SW
16 - 03:00 20.9 0 1020 44 2.3 NNE
16 - 04:00 20.9 0 1020 46 4.7 ENE
16 - 05:00 21.6 0 1020 38 7.7 SSW
16 - 06:00 21.6 0 1020 37 7.6 ESE
16 - 07:00 21.3 0 1020 43 7.6 ESE
16 - 08:00 22.8 0 1020 44 10.9 SSW
16 - 09:00 24.3 0 1020 53 4.8 ESE
16 - 10:00 25.9 0 1021 64 5 WSW
16 - 11:00 27.5 0 1021 61 5 ESE
16 - 12:00 26.5 0 1021 63 3.9 ENE
16 - 13:00 27.3 0 1021 61 1.8 E
16 - 14:00 28.3 0 1021 60 3.2 ESE
16 - 15:00 26.2 0 1020 66 5.8 E
16 - 16:00 25.2 0 1020 69 7.1 E
16 - 17:00 24.2 0 1020 72 3.9 E
16 - 18:00 22.6 0 1020 76 3.4 E
16 - 19:00 20.4 0 1019 76 4.8 NNW
16 - 20:00 19.5 0 1020 65 2.4 ENE
16 - 21:00 19.3 0 1020 52 2.3 NE
16 - 22:00 18.9 0 1021 55 5 SSE
Apalmet nutzt eigene Cookies sowie Cookies von Dritten um unsere Dienstleistungen zu verbessern Cookies.